Regional Weather Roundup
Issued by NWS

Home | Current Version | Previous Version | Text Only | Print | Product List | Glossary Off
Versions: 1 2 3 4 5 6 7 8 9 10 11 12 13 14 15 16 17 18 19 20 21 22 23 24 25 26 27 28 29 30 31 32 33 34 35 36 37 38 39 40 41 42 43 44 45 46 47 48 49 50

000
ASUS45 KBOU 042107
RWRCO

WEATHER ROUNDUP FOR COLORADO
NATIONAL WEATHER SERVICE DENVER/BOULDER CO
300 PM MDT TUE AUG 04 2015

NOTE: "FAIR" INDICATES FEW OR NO CLOUDS BELOW 12000 FEET WITH NO
SIGNIFICANT WEATHER AND/OR OBSTRUCTIONS TO VISIBILITY.

COZ001>005-013-030-031-042200-
...NORTHWEST COLORADO...

CITY           SKY/WX    TMP DP  RH WIND       PRES   REMARKS
CRAIG          NOT AVBL
HAYDEN         SUNNY     79  39  24 W16G28    30.23S
MEEKER         MOSUNNY   85  33  15 W14G25    30.22F
MOUNT WERNER   NOT AVBL
STEAMBOAT SPGS   N/A    N/A N/A N/A MISG        N/A
WALDEN         MOSUNNY   72  37  28 W16G25    30.32R
$$

COZ006>008-011-042200-
...WEST CENTRAL VALLEYS...

CITY           SKY/WX    TMP DP  RH WIND       PRES   REMARKS
GRAND JUNCTION MOSUNNY   88  41  19 NW9       30.10F
MONTROSE       MOSUNNY   85  45  24 NW12      30.20F
EAGLE          MOSUNNY   79  39  24 SW15G22   30.25S
RIFLE          MOSUNNY   85  43  22 W7        30.15F
DELTA          MOSUNNY   92  38  15 NW10G18   30.14F
NUCLA          MOSUNNY   82  41  23 N3        30.24F
$$

COZ017>023-064>068-042200-
...SOUTHWEST COLORADO...

CITY           SKY/WX    TMP DP  RH WIND       PRES   REMARKS
DURANGO        MOSUNNY   84  33  16 W15       30.24F
CORTEZ         SUNNY     87  39  18 W9G22     30.20F
PAGOSA SPRINGS PTSUNNY   81  32  16 SW12      30.31F
TELLURIDE      MOSUNNY   72  36  26 W13       30.48F
WOLF CREEK PAS NOT AVBL
$$

COZ009-010-012-014-032>034-037-058>063-042200-
...CENTRAL COLORADO...

CITY           SKY/WX    TMP DP  RH WIND       PRES   REMARKS
ASPEN          PTSUNNY   73  41  31 N16G23    30.33S
BUENA VISTA    PTSUNNY   75  32  20 SW13G26   30.30R
COPPER MTN     MOSUNNY   61  30  31 W37G44    30.60R
BERTHOUD PASS  FAIR      50  39  66 NW37G58   30.59S
COTTONWOOD PAS CLOUDY    68  32  26 W14G22    30.46R
GUNNISON       MOSUNNY   79  34  19 W17G30    30.34F
KREMMLING      SUNNY     79  27  14 W13G28    30.29S
LEADVILLE      MOSUNNY   67  30  25 W21G35    30.46S
MONARCH PASS   MOSUNNY   57  36  44 W32G43    30.71S
SALIDA         PTSUNNY   81  32  17 W12G17    30.33F
SUNLIGHT       MOSUNNY   64  43  45 CALM      30.59S
WILKERSON PASS NOT AVBL
$$

COZ069>075-042200-
...SAN LUIS VALLEY/SANGRE DE CRISTO MOUNTAINS...

CITY           SKY/WX    TMP DP  RH WIND       PRES   REMARKS
ALAMOSA        MOSUNNY   79  36  21 NW7       30.28F
LA VETA PASS   MOSUNNY   70  36  28 MISG      30.48F
SAGUACHE       MOSUNNY   79  36  21 NW24G33   30.31S
$$

COZ035-036-038>040-042200-
...NORTHERN COLORADO FRONT RANGE...

CITY           SKY/WX    TMP DP  RH WIND       PRES   REMARKS
DENVER INTL AP MOSUNNY   90  36  14 W9G20     30.04F
DMNS CITY PARK   N/A     89  35  14 W20G26    30.03F
AURORA         MOSUNNY   87  40  18 NW5G18    30.07F
FRONT RANGE AP MOSUNNY   90  36  14 NW10G21   30.07S
ERIE MUNI ARPT SUNNY     91  30  11 W17G31    30.02S
BOULDER MUN AP SUNNY     88  36  15 NW15G30   30.04R
CENTENNIAL     MOSUNNY   86  38  18 VRB3      30.08S
BROOMFIELD     PTSUNNY   90  32  12 W29       30.07S
FORT COLLINS   SUNNY    N/A N/A N/A NW21G29   30.01R
LONGMONT       PTSUNNY   91  38  15 N7        30.03S
$$

COZ041-046-047-076>085-087-088-042200-
...PIKES PEAK/PALMER DIVIDE AND SOUTHERN FOOTHILLS...

CITY           SKY/WX    TMP DP  RH WIND       PRES   REMARKS
COLO. SPRINGS  MOSUNNY   90  33  13 W16G24    30.11S
A. F. ACADEMY  MOSUNNY   83  33  16 N7        30.12S
ELLICOTT       MOSUNNY  N/A N/A N/A E10       30.10F
FALCON         PTSUNNY   81  40  23 E3        30.18S
FORT CARSON    SUNNY     91  32  12 W18G25    30.07S
LIMON          SUNNY     89  38  16 W13G26    30.06F
MONUMENT HILL  MOSUNNY   79  37  22 S3        30.19S
TRINIDAD       MOSUNNY   91  36  14 NW17G25   30.08F
$$

COZ042>045-048>051-090-091-042200-
...NORTHEAST COLORADO...

CITY           SKY/WX    TMP DP  RH WIND       PRES   REMARKS
GREELEY ARPT   MOSUNNY   84  48  28 NE9       30.03S
AKRON          CLOUDY    78  50  37 N16       30.04R
BURLINGTON     SUNNY     86  53  32 N12G20    29.99S
WRAY           CLOUDY    75  60  60 NE12      30.01R
STERLING       PTSUNNY   77  57  50 NE13      30.01R
HOLYOKE        CLOUDY    73  63  68 NE15      30.03R
FORT MORGAN    PTSUNNY   84  44  24 N14G20    30.03S
$$

COZ086-089-092>099-042200-
...SOUTHEAST COLORADO...

CITY           SKY/WX    TMP DP  RH WIND       PRES   REMARKS
PUEBLO         SUNNY     96  42  15 SW21      29.98F
LA JUNTA       SUNNY     94  51  23 NE7       29.96F
LAMAR          SUNNY     92  52  25 VRB3      29.92F
SPRINGFIELD      N/A     95  44  17 W10G18    29.97F
$$



USA.gov is the U.S. government's official web portal to all federal, state and local government web resources and services.